Starlink 4590

operational
NORAD ID: 53606 Int'l Des: 2022-104 Owner: SPXS Country: US Constellation: starlink
LEOCIRCULAR

关于 Starlink 4590

正在加载描述...

实时位置

正在加载3D地球...

即将过境

高度历史

Altitude vs Time

uPlot chart will show altitude changes over time

两行轨道根数

1 53606U 22104U 25350.95739590 .00000510 00000-0 50146-4 0 9997
2 53606 53.2170 245.6335 0001602 81.7378 278.3796 15.08840896183149
Epoch: Dec 16, 2025 • Age: 11 hours

当前状态

高度 542.3 km
速度 7.59 km/s
星下点 -8.84°S, 0.23°W
发射日期 Aug 28, 2022
运行时间 3.3 years
类型 internet

技术详情

分类 Payload
质量 300.00 kg
干质量 290.00 kg
总质量 300.00 kg
长度 0.20 m
直径 2.80 m
跨度 9.00 m
形状 Box + pan
制造商 SPXS
平台类型 Starlink
阶段状态 In Orbit
所有者/国家 SPXS/US

大型星座

Loading constellations...